TimeEDT,TemperatureF,Dew PointF,Humidity,Sea Level PressureIn,VisibilityMPH,Wind Direction,Wind SpeedMPH,Gust SpeedMPH,PrecipitationIn,Events,Conditions,WindDirDegrees,DateUTC
12:52 AM,42.1,33.1,70,30.35,10.0,NE,3.5,-,N/A,,Clear,50,2013-10-30 04:52:00
1:52 AM,42.1,33.1,70,30.34,10.0,NNE,3.5,-,N/A,,Clear,30,2013-10-30 05:52:00
2:52 AM,41.0,33.1,73,30.34,10.0,NNW,5.8,-,N/A,,Partly Cloudy,340,2013-10-30 06:52:00
3:52 AM,42.1,30.0,62,30.32,10.0,Calm,Calm,-,N/A,,Scattered Clouds,0,2013-10-30 07:52:00
4:52 AM,43.0,30.9,62,30.30,10.0,North,3.5,-,N/A,,Overcast,360,2013-10-30 08:52:00
5:52 AM,42.1,30.9,65,30.30,10.0,North,4.6,-,N/A,,Clear,360,2013-10-30 09:52:00
6:52 AM,41.0,30.9,67,30.30,10.0,North,4.6,-,N/A,,Clear,360,2013-10-30 10:52:00
7:52 AM,42.1,32.0,67,30.30,10.0,North,5.8,-,N/A,,Clear,360,2013-10-30 11:52:00
8:52 AM,44.1,33.1,65,30.31,10.0,Calm,Calm,-,N/A,,Mostly Cloudy,0,2013-10-30 12:52:00
9:52 AM,48.9,36.0,61,30.30,10.0,North,3.5,-,N/A,,Overcast,10,2013-10-30 13:52:00
10:52 AM,52.0,39.0,61,30.30,10.0,Calm,Calm,-,N/A,,Overcast,0,2013-10-30 14:52:00
11:52 AM,54.0,42.1,64,30.29,10.0,Calm,Calm,-,N/A,,Overcast,0,2013-10-30 15:52:00
12:52 PM,55.0,45.0,69,30.26,10.0,Calm,Calm,-,N/A,,Overcast,0,2013-10-30 16:52:00
1:52 PM,55.9,46.0,69,30.24,10.0,Calm,Calm,-,N/A,,Overcast,0,2013-10-30 17:52:00
2:05 PM,55.4,46.4,72,30.23,10.0,Calm,Calm,-,N/A,,Overcast,0,2013-10-30 18:05:00
2:52 PM,57.0,46.0,67,30.22,10.0,SSW,4.6,-,N/A,,Overcast,210,2013-10-30 18:52:00
3:09 PM,57.2,46.4,67,30.21,10.0,SSW,4.6,-,N/A,,Overcast,210,2013-10-30 19:09:00
3:52 PM,57.0,48.0,72,30.20,10.0,SSW,3.5,-,N/A,,Overcast,210,2013-10-30 19:52:00
4:52 PM,57.0,48.0,72,30.20,10.0,Calm,Calm,-,N/A,,Overcast,0,2013-10-30 20:52:00
5:47 PM,55.4,48.2,77,30.20,10.0,Calm,Calm,-,N/A,,Overcast,0,2013-10-30 21:47:00
5:52 PM,55.9,48.0,75,30.21,10.0,Calm,Calm,-,N/A,,Overcast,0,2013-10-30 21:52:00
6:02 PM,55.4,48.2,77,30.20,10.0,Calm,Calm,-,N/A,,Overcast,0,2013-10-30 22:02:00
6:50 PM,55.4,48.2,77,30.22,10.0,Calm,Calm,-,N/A,,Overcast,0,2013-10-30 22:50:00
6:52 PM,55.9,48.0,75,30.22,10.0,Calm,Calm,-,N/A,,Overcast,0,2013-10-30 22:52:00
7:03 PM,53.6,46.4,77,30.22,10.0,Calm,Calm,-,N/A,,Mostly Cloudy,0,2013-10-30 23:03:00
7:52 PM,50.0,45.0,83,30.23,10.0,Calm,Calm,-,N/A,,Partly Cloudy,0,2013-10-30 23:52:00
8:44 PM,51.8,48.2,88,30.23,10.0,North,4.6,-,N/A,,Mostly Cloudy,10,2013-10-31 00:44:00
8:52 PM,52.0,46.9,83,30.23,10.0,North,3.5,-,N/A,,Mostly Cloudy,350,2013-10-31 00:52:00
9:28 PM,51.8,46.4,82,30.24,10.0,Calm,Calm,-,N/A,,Scattered Clouds,0,2013-10-31 01:28:00
9:52 PM,46.9,43.0,86,30.24,10.0,Calm,Calm,-,N/A,,Clear,0,2013-10-31 01:52:00
10:52 PM,48.9,44.1,83,30.24,10.0,Calm,Calm,-,N/A,,Clear,0,2013-10-31 02:52:00
11:52 PM,46.9,43.0,86,30.24,10.0,Calm,Calm,-,N/A,,Clear,0,2013-10-31 03:52:00